Location: Newark
(6.0333°S, 36.1333°E)
Time: 15:33:17
(UTC+00:00)

ISS - Pass Details

Date: 20 November 2019
Orbit: 412 x 421 km, 51.6° (Epoch: 05 December)

Event Time Altitude Azimuth Distance (km) Brightness Sun altitude
Exits shadow 02:33:18 - 321° (NW) 1,538 -1.4 -9.1°
Reaches altitude 10° 02:33:25 10° 320° (NW) 1,489 -1.5 -9.1°
Maximum altitude 02:36:46 76° 234° (SW) 433 -3.8 -8.3°
Drops below altitude 10° 02:40:07 10° 148° (SSE) 1,494 -0.1 -7.5°
Sets 02:42:13 0° 146° (SSE) 2,359 1.0 -7.0°
